Location: Pedimozza
(42.0500°N, 9.3500°E)
Time: 15:12:46
(UTC+00:00)

Cosmos 1666 - Pass Details

Date: 19 August 2019
Orbit: 497 x 523 km, 82.5° (Epoch: 22 September)

Event Time Altitude Azimuth Distance (km) Brightness Sun altitude
Exits shadow 21:22:46 30° 350° (N) 949 4.5 -28.4°
Drops below altitude 10° 21:24:53 10° 1° (N) 1,757 6.0 -28.6°
Sets 21:27:03 0° 5° (N) 2,645 7.0 -28.8°
